Location: Lake Sonoma
(38.7200°N, 123.0564°W)
Time: 12:33:53
(UTC-07:00)

Daily predictions for brighter satellites

Satellite Brightness Start Highest point End
(mag) Time Altitude Azimuth Time Altitude Azimuth Time Altitude Azimuth
ALOS 2.3 20:48:32 10° SSE 20:53:12 80° ENE 20:57:53 10° N
BREEZE-M R/B 4.0 20:51:00 10° W 20:53:41 30° SW 20:58:01 10° SSE
Atlas Centaur 2 4.0 20:48:45 10° SSW 20:54:25 23° SSE 21:00:34 10° ESE
SL-8 R/B 4.5 20:52:22 10° WSW 20:57:07 57° NNW 21:01:53 10° NE
Cosmos 1939 Rocket 4.1 20:56:13 10° SE 20:59:44 28° ENE 21:03:17 10° NNE
Cosmos 2237 Rocket 2.6 20:55:08 10° SSW 21:00:44 72° WNW 21:06:24 10° NNE
Envisat 4.1 20:57:43 10° SE 21:02:00 28° ENE 21:06:18 10° N
ERS-1 Rocket 3.2 20:58:25 10° SSE 21:03:18 56° ENE 21:08:13 10° N
Cosmos 1110 Rocket 4.4 20:58:23 10° N 21:03:32 49° ENE 21:08:36 10° SE
CZ-2D R/B 3.9 20:59:58 10° S 21:03:49 59° W 21:07:41 10° NNW
Cosmos 1726 Rocket 3.7 21:04:42 10° N 21:09:06 56° E 21:13:26 10° SSE
Cosmos 2278 Rocket 2.4 21:03:51 10° NNW 21:09:33 78° WSW 21:15:12 10° SSE
SL-24 R/B - RUBIN 2 4.1 21:06:12 10° SSW 21:11:28 80° ESE 21:17:31 10° NNE
YAOGAN 11 4.2 21:08:15 10° S 21:12:38 80° WSW 21:16:59 10° NNW
Lacrosse 5 rocket 1.4 21:10:05 10° SW 21:13:54 74° NW 21:17:56 10° NE
GEOS 3 Rocket 4.3 21:09:42 10° SSE 21:14:50 53° WSW 21:19:58 10° NW
Cosmos 2233 Rocket 4.3 21:10:15 10° N 21:16:31 74° W 21:22:40 10° S
Cosmos 2058 Rocket 3.3 21:13:27 10° N 21:17:45 52° E 21:21:59 10° SSE
Abrixas rocket 3.9 21:15:27 10° NW 21:18:30 29° NNE 21:21:33 10° E
Cosmos 1666 3.6 21:18:02 10° NNE 21:21:35 32° ENE 21:24:20 15° SE
USA 234 3.9 21:15:31 10° ESE 21:21:44 47° NE 21:27:58 10° NW
Aureole 2 Rocket 3.4 21:18:13 10° S 21:21:55 34° ESE 21:25:21 10° NE
Cosmos 1500 4.2 21:19:01 10° NNW 21:22:45 47° W 21:26:29 10° SSW
Cosmos 2219 Rocket 4.3 21:17:47 10° WSW 21:22:48 32° WNW 21:27:50 10° N
OAO 3 Copernicus 4.5 21:18:07 10° W 21:23:04 57° S 21:27:34 12° ESE
Cosmos 2369 Rocket 4.4 21:22:29 10° NNE 21:23:40 11° NE 21:24:53 10° ENE
Cosmos 1464 Rocket 4.1 21:17:42 10° N 21:23:45 57° E 21:29:47 10° SSE
Okean 2 3.5 21:20:55 10° S 21:25:01 60° E 21:29:10 10° NNE
Cosmos 1602 Rocket 4.5 21:22:08 11° SSE 21:25:49 31° E 21:29:45 10° NNE
deb Chang Zheng 4 3.6 21:21:27 10° NNE 21:25:53 88° ESE 21:30:15 10° SSW
SL-16 R/B 2.2 21:21:25 10° SSW 21:27:04 83° ESE 21:32:45 10° NNE
Cosmos 1743 3.0 21:27:10 10° NNW 21:31:00 69° W 21:34:48 10° S
Meteor 1-23 Rocket 4.2 21:31:02 10° S 21:36:39 87° E 21:42:23 10° N
Cosmos 1461 4.3 21:33:58 10° N 21:37:39 27° NE 21:40:09 16° E
CZ-2C R/B 2.5 21:36:31 10° SSW 21:38:32 26° W 21:40:33 10° NW
Cosmos 494 Rocket 3.9 21:33:36 10° SSW 21:38:42 90° ESE 21:43:51 10° NNE
PSLV R/B 4.2 21:36:07 10° SSW 21:39:15 30° SSE 21:40:53 20° ESE
Cosmos 2034 Rocket 4.2 21:34:45 10° N 21:41:04 59° E 21:46:17 15° SSE
SPOT 1/Viking Rocket 4.5 21:38:24 17° ESE 21:41:34 32° ENE 21:46:06 10° N
UNK 4.4 21:36:20 10° NNE 21:41:35 50° E 21:47:04 10° S
H-2A R/B 2.7 21:45:46 10° S 21:49:52 52° W 21:54:05 10° NNW
MetOp-B 4.3 21:51:24 20° SSE 21:55:00 61° ENE 22:00:17 10° N
Cosmos 1603 3.8 21:50:20 10° S 21:55:47 54° ESE 22:01:14 10° NNE
CZ-4 SHROUD 3.2 21:55:05 26° S 21:56:44 78° WSW 21:59:54 10° NNW
Cosmos 1626 Rocket 3.5 21:55:59 15° S 21:59:40 75° E 22:04:06 10° N
SPOT 5 2.6 21:56:47 20° SSE 21:59:50 90° WSW 22:04:13 10° NNW
Cosmos 1331 Rocket 4.5 21:55:15 10° NNW 22:00:22 57° WSW 22:04:28 15° S
Meteor 2-4 Rocket 4.4 21:55:40 10° SSW 22:01:23 58° WNW 22:07:14 10° N
Meteor 2-9 Rocket 4.4 21:56:37 10° NNW 22:02:16 75° W 22:07:10 15° S
Cosmos 1302 Rocket 4.0 22:03:43 10° NNW 22:08:59 83° WSW 22:12:06 25° SSE
ATLAS CENTAUR R/B 4.4 22:06:59 10° W 22:10:58 23° NW 22:15:00 10° N
SeaSat 1 2.9 22:12:45 23° S 22:15:46 57° WSW 22:20:39 10° NNW
APEX 3.8 22:12:00 10° NNW 22:16:04 73° WSW 22:18:35 29° SSE
Cosmos 2228 3.9 22:14:26 10° NNW 22:18:41 47° W 22:21:46 17° SSW
CZ-4B R/B 3.5 22:14:50 10° NNE 22:19:54 88° WNW 22:24:15 15° SSW
Cosmos 1943 3.8 22:21:12 32° SE 22:22:25 36° ESE 22:27:34 10° NE
YAOGAN 6 2.5 22:22:00 47° SSE 22:22:59 89° E 22:26:44 10° N
Meteor 2-12 Rocket 4.4 22:17:42 10° N 22:23:49 70° E 22:26:47 31° SSE
BREEZE-M DEB (TANK) 3.3 22:25:49 10° WSW 22:29:34 43° NW 22:31:00 18° NNE
CZ-4C R/B 3.8 22:29:37 44° ESE 22:30:28 51° ENE 22:34:32 10° N
Terra 2.8 22:30:52 29° E 22:31:50 31° ENE 22:36:01 10° N
Cosmos 1943 Rocket 4.1 22:36:51 10° NNE 22:40:20 17° NE 22:42:31 14° ENE
SL-08 RB Rocket 3.6 22:39:27 51° SSE 22:40:34 78° ENE 22:45:08 10° N
Envisat 4.5 22:37:12 14° SSW 22:40:54 31° W 22:45:25 10° NW
IGS 5A 4.4 22:42:30 33° ENE 22:42:37 33° ENE 22:46:21 10° N
Atlas Centaur 2 3.4 22:35:50 10° SW 22:43:19 42° SSE 22:46:01 33° SE
Cosmos 407 Rocket 4.0 22:45:24 39° ESE 22:45:26 39° ESE 22:50:18 10° NE
COSMOS 2455 2.8 22:39:27 10° SSW 22:45:27 90° WNW 22:51:31 10° NNE
USA 81 3.9 22:42:34 10° N 22:47:53 84° E 22:49:28 47° S
Milstar 3 Cent rocket 4.1 22:46:32 10° WSW 22:48:41 13° SSW 22:48:41 13° SSW
Cosmos 1758 Rocket 3.9 22:50:23 48° E 22:50:23 48° E 22:54:26 10° NNE
Cosmos 1953 4.4 22:50:51 10° NNE 22:52:49 17° ENE 22:52:49 17° ENE
CARTOSAT-1 3.7 22:54:54 55° E 22:55:04 56° ENE 22:59:19 10° N
SAR-Lupe-2 4.0 22:55:47 53° NE 22:55:47 53° NE 22:58:50 10° N
Abrixas rocket 3.5 22:52:26 10° WNW 22:54:50 37° W 22:54:50 37° W
ATLAS 3B R/B 3.0 22:52:20 30° S 22:56:12 58° ESE 23:03:36 10° NE
Lacrosse 4 Rocket 3.0 23:03:16 23° NE 23:03:16 23° NE 23:05:02 10° NE
USA 234 3.6 23:02:32 38° S 23:04:39 51° SW 23:11:02 10° NW
Cosmos 2369 Rocket 2.2 23:03:08 10° NNW 23:08:48 69° ENE 23:09:48 57° ESE
Cosmos 1825 Rocket 4.1 23:08:13 46° SW 23:09:10 56° W 23:13:34 10° N
SL-24 R/B 4.3 23:06:24 10° N 23:11:18 77° E 23:11:46 70° SE
H-2A R/B 1.7 23:11:45 71° SSE 23:12:18 87° ENE 23:17:20 10° NNW
ARGOS 3.9 23:11:14 34° SW 23:13:02 45° W 23:18:14 10° NNW
Cosmos 1461 4.4 23:13:12 10° NW 23:16:39 27° WSW 23:16:39 27° WSW
Meteor 1-22 Rocket 4.2 23:13:19 10° NNW 23:18:51 81° W 23:19:55 60° S
Cosmos 1346 Rocket 3.3 23:21:11 55° NW 23:21:11 55° NW 23:24:41 10° N
Cosmos 1992 Rocket 4.2 23:18:05 10° NNW 23:23:13 58° WSW 23:23:49 54° SW
COSMOS 2406 4.5 23:26:16 27° ENE 23:26:16 27° ENE 23:29:47 10° NE
USA 238 DEB 4.4 23:26:50 37° E 23:26:50 37° E 23:32:32 10° NE
USA 238 4.4 23:26:58 36° E 23:26:58 36° E 23:32:36 10° NE
Nadezhda 4 Rocket 4.3 23:26:46 48° ESE 23:27:15 49° E 23:33:19 10° NNE
DMSP B5D2-2 4.1 23:22:40 10° N 23:27:58 77° WNW 23:28:51 61° SW
Cosmos 2263 4.1 23:22:30 10° NNW 23:28:07 71° ENE 23:28:39 66° ESE
Cosmos 1758 4.4 23:33:13 10° N 23:36:08 40° NNE 23:36:08 40° NNE
Cosmos 1842 4.3 23:43:13 44° NNW 23:43:13 44° NNW 23:46:01 10° N
Spot 4 4.2 23:45:42 55° W 23:45:42 55° W 23:50:12 10° NNW
Cosmos 676 Rocket 4.2 23:51:59 63° W 23:52:25 66° WNW 23:57:45 10° NNE
